Regional Weather Roundup
Issued by NWS

Home | Current Version | Previous Version | Graphics & Text | Print | Product List | Glossary On
Versions: 1 2 3 4 5 6 7 8 9 10 11 12 13 14 15 16 17 18 19 20 21 22 23 24 25 26 27 28 29 30 31 32 33 34 35 36 37 38 39 40 41 42 43 44 45 46 47 48 49 50
448
ASUS43 KFSD 210602
RWRSD

WEATHER ROUNDUP FOR SOUTH DAKOTA
NATIONAL WEATHER SERVICE SIOUX FALLS SD
100 AM CDT FRI JUL 21 2017

NOTE: "FAIR" INDICATES FEW OR NO CLOUDS BELOW 12,000 FEET WITH NO
SIGNIFICANT WEATHER AND/OR OBSTRUCTIONS TO VISIBILITY.


SDZ001>005-009-010-012>017-210700-
NORTHWEST AND NORTH CENTRAL SOUTH DAKOTA

CITY           SKY/WX    TMP DP  RH WIND       PRES   REMARKS
BUFFALO          N/A     71  61  70 S15G21    29.83R
FAITH            N/A     69  64  84 NW21      30.01R
MOBRIDGE       TSTM      72  66  81 SE22G37   29.90S
$$

SDZ012>016-024>037-041>051-057-063-072>074-210700-
SOUTHWEST AND SOUTH CENTRAL SOUTH DAKOTA

CITY           SKY/WX    TMP DP  RH WIND       PRES   REMARKS
RAPID CTY ARPT TSTM      67  62  84 N30G43    30.01R
PIERRE         NOT AVBL
CUSTER         CLOUDY    64  60  87 CALM      30.10F
PHILIP         CLOUDY    74  64  71 NE20G28   29.90R
PINE RIDGE     CLOUDY    81  66  60 SE5       29.93S
SPEARFISH      LGT RAIN  66  64  94 SE13      30.02F
WINNER         FAIR      79  73  82 SE10      29.88S
$$

SDZ004>011-016>023-039-040-210700-
NORTHEAST SOUTH DAKOTA

CITY           SKY/WX    TMP DP  RH WIND       PRES   REMARKS
ABERDEEN       LGT RAIN  74  68  81 N3        29.96R
WATERTOWN      CLOUDY    72  67  84 SE7       29.95F
BROOKINGS      PTCLDY    73  69  87 SE12      29.95F
SISSETON         N/A     69  68  96 CALM      29.92F
$$

SDZ017-020-022-023-036>040-048>070-210700-
SOUTHEAST SOUTH DAKOTA

CITY           SKY/WX    TMP DP  RH WIND       PRES   REMARKS
SIOUX FALLS    CLEAR     75  73  93 E7        29.92S
HURON          PTCLDY    74  70  87 E6        29.91S
CHAMBERLAIN    PTCLDY    78  75  91 NE6       29.89S
MITCHELL       CLEAR     74  72  93 E3        29.90R
YANKTON        CLEAR     74  70  87 E6        29.89S
$$

ABBREVIATIONS USED IN REMARKS
   TC - TEMPERATURE IN CELSIUS
  WCI - WIND CHILL INDEX
   HX - HEAT INDEX
  VSB - VISIBILITY





USA.gov is the U.S. government's official web portal to all federal, state and local government web resources and services.